カタログに戻る

COSMOS 2251 DEB

運用中LEO
NORAD 37994·DEBRIS·🇷🇺 Russia

打ち上げ Jun 16, 1993 から Plesetsk Cosmodrome

Loading…

次のパス (今後24時間)

TLE

最新Source: Space-Track

元期: Sep 14, 2026, 08:06 UTC

1 37994U 93036BQV 26257.33773407  .00000487  00000-0  16213-3 0  9994
2 37994  74.0351 126.5398 0022765 144.5013 215.7662 14.40095902810314

AllMySatでCOSMOS 2251 DEBをリアルタイム追跡

Download on the App Store